Flag for Germany Weather past 2 weeks in Bingen am Rhein, Rhineland-Palatinate, Germany

Now
46 °F

Overcast.


Feels Like: 42 °F
Forecast: 37 / 49 °F
Wind: 9 mph from Southwest

Location: Wiesbaden Airport

Current Time: Dec 23, 2014 at 2:37:46 AM

Latest Report: Dec 23, 2014 at 1:58 AM


Visibility: N/A

Pressure: 30.22 "Hg

Humidity: 93%

Dew point: 45 °F

Location of Bingen am RheinLocation

Historic Weather in Bingen am Rhein — Graph

°F

Bingen am Rhein temperature yesterday

Maximum temperature yesterday: 47 °F (at 7:58 PM)
Minimum temperature yesterday: 44 °F (at 2:58 AM)
Average temperature yesterday: 45 °F

Past Weeks' High & Low Weather Summary

 TemperatureHumidityPressure
High55 °F (Dec 18, 9:01 PM)100% (Dec 8, 2:59 AM)30.48 "Hg (Dec 8, 2:59 AM)
Low31 °F (Dec 8, 9:58 PM)70% (Dec 9, 1:00 PM)29.62 "Hg (Dec 12, 6:58 PM)
Average42 °F91%30.06 "Hg
* Reported Dec 8 12:58 AM — Dec 23 12:58 AM, Bingen am Rhein, Weather by CustomWeather, © 2014

Note: Actual official high and low records may vary slightly from our data, if they occured in-between our weather recording intervals... More about our weather records

Advertising

Bingen am Rhein weather history for previous 24 hours

 ConditionsComfort  
Time TempWeatherWind HumidityBarometerVisibility
12:58 AM
Dec 23
46 °FOvercast.8 mph93%30.22 "HgN/A
11:58 PM
Dec 22
46 °FOvercast.8 mph87%30.22 "HgN/A
10:58 PM46 °FOvercast.8 mph87%30.22 "HgN/A
9:58 PM46 °FPassing clouds.14 mph87%30.22 "HgN/A
8:58 PM46 °FOvercast.14 mph87%30.21 "HgN/A
7:58 PM47 °FOvercast.10 mph84%30.22 "HgN/A
3:58 PM46 °FOvercast.12 mph84%30.22 "HgN/A
2:58 PM46 °FOvercast.10 mph82%30.22 "HgN/A
1:58 PM46 °FOvercast.5 mph81%30.24 "HgN/A
12:58 PM46 °FOvercast.16 mph81%30.24 "HgN/A
11:58 AM46 °FOvercast.17 mph82%30.27 "HgN/A
10:58 AM46 °FOvercast.16 mph82%30.28 "HgN/A
9:58 AM45 °FOvercast.17 mph84%30.28 "HgN/A
8:58 AM45 °FOvercast.16 mph87%30.27 "HgN/A
7:58 AM45 °FOvercast.17 mph82%30.27 "HgN/A
7:02 AM45 °FOvercast.18 mph81%30.25 "HgN/A
6:58 AM45 °FOvercast.17 mph82%30.26 "HgN/A
5:58 AM45 °FOvercast.14 mph81%30.26 "HgN/A
4:58 AM45 °FOvercast.16 mph82%30.28 "HgN/A
4:03 AM45 °FOvercast.10 mph81%30.28 "HgN/A
3:58 AM45 °FOvercast.13 mph81%30.30 "HgN/A
2:58 AM44 °FOvercast.15 mph81%30.31 "HgN/A
Weather by CustomWeather, © 2014

See weather overviewHow to use our weather pages